www.pogodaiklimat.ru

Погода и климат >> Архив погоды >> Испания >> Авилес


ПОГОДА в Авилесе

  • Прогноз погоды в Авилесе
  • Монитор погоды в Авилесе

АРХИВ ПОГОДЫ в Авилесе

Время (UTC), дата Ветер
(напр.,м/с)
 
Видим.   Явления Облачность Т
(С)
Тd
(С)
f
(%)
Тe
(С)
Тes
(С)
Комфортность P
(гПа)
Po
(гПа)
Тmin
(С)
Tmax
(С)
R
(мм)
R24
(мм)
S
(см)
12 16.07 В 4 25 км 8/8 600 м
[Cu med, cong Ci fib]
+20.6 +16.7 78 +24 +27 комфорт 1018.8 1003.7
15 16.07 СВ 5 25 км 8/6 600 м
[Sc diur, vesp Ci sp]
+20.6 +16.1 75 +24 +27 комфорт 1018.2 1003.1
18 16.07 В 3 25 км 9/8 600 м
[Sc diur, vesp Ci sp]
+19.9 +16.2 79 +23 +23 комфорт 1018.2 1003.0 +22.2
21 16.07 В 2 20 км 10/10 600 м
[Sc]
+18.8 +16.2 85 +21 +21 комфорт 1018.6 1003.4
00 17.07 СВ 2 20 км 10/10 300 м
[Sc]
+18.7 +16.8 89 +21 +21 комфорт 1018.8 1003.6
03 17.07 В 2 н/о осадки н/о +17.6 +16.6 94 +18 +18 1018.1 1002.8 0.0
06 17.07 СВ 2 2500 м дождь {морось} 10/10 100 м
[Frnb]
+17.2 +16.6 96 +18 +18 1018.4 1003.1 +17.2 1
09 17.07 В 2 5000 м слаб. дождь {морось} 10/9 100 м
[Frnb]
+17.8 +17.2 96 +18 +19 1019.2 1003.9 2
12 17.07 штиль 0 12 км {дождь, морось} 10/8 300 м
[Cu Sc Ac As]
+19.1 +16.7 86 +21 +22 комфорт 1019.8 1004.6 0.0
15 17.07 СЗ 2 20 км 10/8 300 м
[Cu Sc Ac As]
+20.0 +16.4 80 +23 +24 комфорт 1019.9 1004.7
18 17.07 СЗ 1 20 км 10/8 600 м
[Cu Sc Ac As]
+18.8 +16.0 84 +21 +21 комфорт 1019.8 1004.5 +20.2
21 17.07 штиль 0 15 км 10/8 300 м
[Cu Sc Ac As]
+17.6 +15.8 89 +18 +18 1020.6 1005.3
00 18.07 штиль 0 15 км 10/6 300 м
[Cu Sc Ac As]
+16.7 +15.4 92 +17 +17 1020.6 1005.2
03 18.07 ЮЗ 1 н/о н/о +16.0 +15.2 95 +17 +17 1019.5 1004.1
06 18.07 ЮЗ 1 18 км 9/9 300 м
[Cu Sc Ac cast]
+15.7 +15.4 98 +16 +16 1019.5 1004.1 +15.0
09 18.07 СЗ 2 20 км 9/9 300 м
[Cu Sc]
+18.6 +15.0 80 +20 +21 1020.1 1004.8
12 18.07 СЗ 3 25 км 3/3 600 м
[Cu hum]
+20.1 +15.5 75 +23 +34 комфорт 1019.8 1004.6
15 18.07 С 2 30 км 1/1 600 м
[Cu hum]
+20.2 +15.7 75 +23 +35 комфорт 1019.2 1004.0
18 18.07 С 2 35 км 4/3 600 м
[Cu hum Ci fib]
+20.2 +16.4 79 +24 +25 комфорт 1019.0 1003.8 +20.9
21 18.07 ЮВ 2 20 км 10/10 300 м
[Cu Sc]
+17.8 +16.3 91 +18 +18 1019.5 1004.2
00 19.07 Ю 1 20 км 9/9 300 м
[Cu Sc]
+17.0 +16.0 94 +18 +18 1019.1 1003.8
03 19.07 Ю 2 н/о н/о +15.8 +15.0 95 +16 +16 1017.5 1002.1
06 19.07 ЮЗ 3 20 км 1/0
[Ci fib]
+16.2 +14.9 92 +16 +17 1016.9 1001.5 +15.7
09 19.07 С 2 25 км ясно +20.2 +16.1 77 +24 +34 комфорт 1016.0 1000.9
12 19.07 В 4 30 км 1/1 600 м
[Cu hum]
+22.6 +18.3 77 +28 +39 душно 1015.6 1000.6
15 19.07 В 4 30 км 1/1 300 м
[Cu hum]
+23.0 +18.4 75 +29 +37 очень
душно
1014.3 999.4
18 19.07 С 2 30 км 1/1 600 м
[Cu hum]
+21.6 +18.2 81 +26 +28 душно 1014.3 999.3 +23.1
21 19.07 З 1 20 км 1/0
[Ci fib]
+18.4 +17.6 95 +21 +21 комфорт 1015.3 1000.1
00 20.07 штиль 0 25 км 1/1
[Sc Ci fib]
+17.5 +16.5 94 +17 +17 1015.0 999.8
03 20.07 ЮЗ 2 н/о н/о +17.4 +16.4 94 +18 +18 1015.3 1000.0
06 20.07 З 3 10 км 9/9 200 м
[Cu Sc]
+18.0 +17.2 95 +18 +18 1015.9 1000.7 +16.9
09 20.07 СЗ 3 20 км 4/4 600 м
[Cu hum]
+21.9 +17.7 77 +26 +32 душно 1016.7 1001.7
12 20.07 СЗ 3 28 км 5/3 600 м
[Cu hum Ci fib]
+22.4 +18.5 79 +28 +38 душно 1017.9 1002.9
15 20.07 СЗ 2 20 км 10/9 200 м
[Cu Sc Ac cuf]
+20.8 +18.6 87 +26 +26 душно 1019.1 1004.0
18 20.07 З 3 20 км 10/9 300 м
[Cu Sc Ac cuf]
+19.2 +17.9 92 +21 +22 комфорт 1020.2 1005.0 +23.3
21 20.07 ЮЗ 1 15 км 10/10 300 м
[St]
+18.4 +17.3 93 +20 +20 1022.0 1006.7
00 21.07 штиль 0 15 км 10/9 300 м
[Sc Ac trans]
+18.2 +17.0 93 +19 +19 1021.8 1006.5
03 21.07 ЮЗ 2 н/о н/о +18.0 +16.8 93 +19 +19 1021.2 1005.9
06 21.07 ЮЗ 1 3000 м слаб. дождь {морось, туман} 10/10 200 м
[Frnb]
+17.9 +17.3 96 +19 +19 1021.7 1006.4 +17.8 0.4
09 21.07 СЗ 1 4000 м слаб. морось {дождь} 10/10 50 м
[Frnb]
+18.6 +18.1 97 +21 +21 комфорт 1022.7 1007.4 3
12 21.07 В 3 2500 м слаб. морось {дождь} 10/10 50 м
[Frnb]
+19.2 +18.9 98 +22 +22 комфорт 1022.4 1007.1 0.4
15 21.07 В 3 н/о н/о +20.7 +19.3 92 +26 +26 душно 1022.9 1007.7 0.0
18 21.07 В 4 20 км {морось} 8/6 300 м
[Cu Sc Ac cuf Ci fib]
+21.0 +19.1 89 +26 +26 душно 1022.4 1007.2 +21.5
21 21.07 В 4 18 км 10/9 300 м
[Cu Sc Ac cuf Ci fib]
+20.3 +18.4 89 +24 +24 комфорт 1023.5 1008.3
00 22.07 ЮВ 4 15 км 10/9 300 м
[Cu Sc Ac cuf]
+20.3 +19.0 92 +24 +24 комфорт 1022.8 1007.6
03 22.07 В 3 н/о н/о +20.1 +18.9 93 +24 +24 комфорт 1021.7 1006.5
06 22.07 В 4 15 км 10/9 300 м
[Cu Sc Ac trans]
+20.2 +18.5 90 +24 +24 комфорт 1021.3 1006.1 +19.9
09 22.07 В 3 12 км 10/9 300 м
[Sc Ac trans]
+21.7 +19.6 88 +27 +27 душно 1020.8 1005.7
12 22.07 В 4 15 км 10/9 300 м
[Sc Ac trans]
+22.5 +19.6 84 +29 +29 очень
душно
1019.8 1004.8
15 22.07 В 5 20 км 10/10 300 м
[Sc Ac trans]
+21.8 +19.4 86 +27 +27 душно 1019.0 1003.9
18 22.07 В 3 12 км в посл. час гроза {ливн. осадки} 10/9 200 м
[Cu med, cong Ac cuf]
+20.8 +19.8 94 +26 +26 душно 1018.0 1002.9 +23.0 0.3
21 22.07 В 4 9000 м гроза, ливневой дождь 10/9 300 м
[Cb cap Ac cuf]
+20.4 +19.7 96 +25 +25 комфорт 1018.0 1002.9 0.3
00 23.07 В 1 5000 м дымка {ливн. осадки} 9/9 300 м
[St]
+19.7 +19.5 99 +24 +24 комфорт 1016.5 1001.4 0.2
03 23.07 ЮЗ 2 н/о н/о +20.1 +19.4 96 +24 +24 комфорт 1015.2 1000.1
06 23.07 ЮЗ 1 5000 м дымка {туман} 10/9 200 м
[St Ac cast Ci sp]
+19.9 +19.4 97 +24 +24 комфорт 1014.2 999.1 +19.1
09 23.07 СЗ 1 н/о н/о +21.3 +19.8 91 +26 +26 душно 1014.3 999.3

 

Местоположение метеостанции Авилес (Испания): широта 43.55 долгота -6.03 высота над уровнем моря 127 м.

В архиве по умолчанию представлена погода в Авилесе за последнюю неделю. Архивные данные за месяц целиком и за предыдущие месяцы, начиная с января 2011 года, Вы можете получить, выбрав интересующий диапазон дат из раскрывающегося списка и нажав кнопку "Ввод!".


*Определитесь, кто Вы:
робот инопланетянин человек

Внимание! Время в таблицах - всемирное. Для получения местного времени необходимо прибавить поправку, которая равна 1 ч.

Смотрите также архив погоды в соседних городах и на ближайших метеорологических станциях:

Погода на Кабо Пеньяс (Испания) (19 км)
Погода в Овьедо (Испания) (26 км)
Погода в Хихоне (Испания) (27 км)
Погода на Кабо Бусто (Испания) (36 км)
Погода в Вальгранде-Пахаресе (Испания) (67 км)
Погода в Пуэрто-де-Лейтарьегосе (Испания) (69 км)
Погода в Пуэрто-де-Сан-Исидро (Испания) (76 км)
Погода в Кастрополе (Испания) (80 км)
Погода в Льянесе (Испания) (104 км)
Погода в Леоне (Испания) (112 км)

Пояснения к столбцам:

Ветер - указаны скорость ветра в м/с - средняя за 10 мин, порывы в срок и между сроками (в фигурных скобках) и направление, откуда дует ветер: С - северный, СВ - северо-восточный, В - восточный, ЮВ - юго-восточный, Ю - южный, ЮЗ - юго-западный, З - западный, СЗ - северо-западный.
Видимость - горизонтальная дальность видимости в метрах или километрах. При видимости от 1 до 10 км при отсутствии осадков обычно наблюдается дымка, при ухудшении видимости до 1 км и менее - туман. В сухую погоду видимость может ухудшаться дымом, пылью или мглою.
Явления - указаны атмосферные явления, наблюдавшиеся в срок или в последний час перед сроком; фигурными скобками обозначены явления, наблюдавшиеся между сроками (за 1-3 часа до срока); квадратными скобками обозначены град или гололедные отложения с указанием их диаметра в мм.
Облачность - указаны через наклонную черту общая и нижняя облачность в баллах и высота нижней границы облаков в метрах; квадратными скобками обозначены формы облаков: Ci - перистые, Cs - перисто-слоистые, Cc - перисто-кучевые, Ac - высококучевые, As - высокослоистые, Sc - слоисто-кучевые, Ns - слоисто-дождевые, Cu - кучевые, Cb - кучево-дождевые. Подробнее классификацию облаков см. в Атласе облаков (PDF).
T - Температура воздуха - температура, измеренная на высоте 2 м над землей.
Td - Температура точки росы - температура, при понижении до которой содержащийся в воздухе водяной пар достигнет насыщения.
f - Относительная влажность воздуха - влажноcть воздуха, измеренная на высоте 2 м над землей.
Te - Эффективная температура - температура, которую ощущает одетый по сезону человек в тени. Характеристика душности погоды. При расчете учитывается влияние влажности воздуха и скорости ветра на теплоощущения человека.
Tes - Эффективная температура на солнце - температура, которую ощущает человек, с поправкой на солнечный нагрев. Характеристика знойности погоды. Зависит от высоты солнца над горизонтом, облачности и скорости ветра. Ночью, в пасмурную погоду, а также при ветре 12 м/с и более поправка равна нулю.
P - Атмосферное давление - приведенное к уровню моря атмосферное давление.
Po - Атмосферное давление - измеренное на уровне метеостанции атмосферное давление.
Tmin - Минимальная температура - минимум температуры воздуха на высоте 2 м над землей.
Tmax - Максимальная температура - максимум температуры воздуха на высоте 2 м над землей.
R - Количество осадков - Количество выпавших осадков за период времени, мм. При наведении курсора мыши на число - период времени, за который выпало указанное количество осадков.
R24 - Количество осадков - Количество выпавших осадков за 24 часа, мм.
S - Снежный покров - Высота снежного покрова, см. При наведении курсора мыши на число - состояние снежного покрова и степень покрытия местности в баллах.